Theta_e
294 288 286 286 290 291 291 290 292 292 291 288 287 284 285 285 287 289 291 291 289 289 289 290 291 291 292 294 295 296 296 295 294 294 294 294 295 296 296 297 297 296 297 300 299 297 296 296 297 298 297 297 296 296 294 293 293 293 293 293 292 293 293 292 291 291 291 290 289 288 289 290 290 289 288 288 288 287 288 288 288 287 287 287 286 286
293 286 286 291 292 292 291 291 291 291 288 288 287 285 287 285 286 290 291 292 289 289 288 289 290 291 292 294 295 295 293 294 295 295 295 295 295 295 296 296 297 299 300 299 298 296 293 295 296 296 296 296 294 294 293 293 293 293 292 292 292 292 292 292 292 292 291 291 291 290 290 290 290 289 288 288 287 288 288 288 287 287 286 286 286 286
286 286 290 292 294 292 289 289 288 289 288 287 286 286 285 286 288 291 291 293 291 287 289 290 288 290 291 293 294 294 294 296 297 296 297 296 296 295 296 296 297 297 298 299 299 297 294 294 295 295 296 295 296 295 294 294 293 292 292 292 292 292 292 292 292 292 291 291 291 291 290 290 288 289 289 288 288 287 287 287 287 287 286 286 286 286
285 286 291 293 292 290 290 288 287 286 287 285 285 282 284 287 285 286 287 288 288 290 283 282 285 288 289 290 291 294 295 295 296 296 296 296 296 296 297 298 298 297 298 298 299 298 293 293 294 294 294 295 295 294 293 292 292 292 292 292 292 292 292 292 292 293 292 291 289 288 288 288 288 287 287 287 286 286 285 286 287 286 286 286 286 285
289 289 292 293 291 290 290 290 287 286 287 287 287 287 286 287 288 287 287 286 287 287 287 287 287 288 290 290 291 294 296 295 295 295 295 296 296 297 298 298 298 298 299 299 299 297 291 292 293 294 295 294 294 294 293 293 292 292 291 292 292 292 291 292 292 292 291 289 287 286 286 286 285 285 285 284 284 286 286 286 286 286 286 286 285 285
289 291 289 290 290 289 289 287 288 288 286 288 287 288 289 290 288 288 289 287 284 284 284 285 282 284 287 289 291 293 292 292 295 293 294 296 296 297 296 297 299 299 300 300 299 299 294 293 293 293 293 293 294 294 294 293 293 293 292 292 291 291 291 291 291 292 290 290 288 286 286 285 285 285 284 285 286 285 285 286 286 286 286 286 285 285
289 291 292 290 289 288 288 288 288 289 288 286 284 290 291 289 288 287 286 284 280 280 285 286 280 282 283 285 288 290 291 292 292 291 293 295 296 296 297 298 298 298 298 298 297 297 294 293 292 292 293 293 294 294 294 293 292 292 292 291 291 291 291 291 291 291 290 289 288 288 288 288 287 287 287 287 287 287 286 286 285 286 285 285 285 284
289 287 289 290 289 288 286 285 290 290 288 285 284 286 287 287 285 285 285 285 284 283 284 285 283 280 284 285 288 291 291 290 291 292 293 294 294 295 296 297 297 298 297 296 295 296 295 294 293 293 293 293 294 294 292 292 292 292 291 291 291 291 291 291 291 291 290 289 289 288 288 288 287 288 288 287 286 286 286 285 285 285 285 285 285 284
289 286 287 287 286 285 287 291 289 291 288 285 287 285 285 286 285 284 285 283 281 280 282 282 283 282 283 285 291 291 287 287 290 293 295 295 295 295 296 297 297 297 298 295 295 295 295 294 293 294 293 293 293 292 292 292 292 292 291 291 291 291 291 290 290 290 290 290 289 288 288 287 288 288 287 286 287 286 286 285 285 284 284 284 284 284
288 288 288 290 287 286 289 288 288 291 288 287 287 286 284 283 282 285 283 285 280 279 280 282 284 280 283 284 284 285 286 287 290 293 295 296 296 296 297 298 298 297 297 295 295 296 295 294 294 294 292 291 292 292 292 291 291 291 291 290 290 290 290 290 290 290 290 290 289 288 288 288 288 287 285 285 285 284 284 285 284 284 284 284 284 283
288 291 291 289 288 290 287 286 286 289 289 287 286 286 282 281 280 278 278 278 280 279 281 283 284 285 280 283 284 285 285 289 291 291 293 294 294 295 295 296 297 298 298 296 294 294 294 292 292 291 292 291 290 290 290 290 290 290 290 290 290 290 290 290 289 290 289 289 289 289 288 288 287 286 285 283 284 284 284 284 284 284 284 284 284 283
289 289 289 287 290 287 287 287 285 285 286 288 288 281 284 285 279 278 272 278 275 278 280 284 284 285 279 279 282 284 285 286 290 290 292 293 293 295 295 296 297 297 298 297 293 293 291 290 289 289 290 289 289 289 289 289 290 290 290 290 289 289 290 289 289 289 289 289 289 289 288 288 288 287 286 285 284 284 284 284 284 284 283 283 283 283
284 287 288 290 291 293 286 288 285 281 287 287 284 285 283 280 279 275 274 272 273 278 278 281 283 279 282 286 284 287 288 287 289 292 293 293 293 293 295 295 296 297 296 295 294 294 292 292 291 290 290 288 288 289 289 289 289 290 290 289 289 289 289 289 289 289 289 289 289 289 289 288 288 287 287 286 285 285 284 284 284 283 283 283 282 282
283 283 286 288 290 291 291 286 282 284 284 285 285 282 281 276 275 274 271 268 270 277 279 279 282 282 281 282 291 293 294 295 290 292 293 292 292 294 295 295 294 295 295 295 294 294 294 293 292 291 290 290 290 289 289 289 289 289 290 289 289 290 289 289 289 289 289 289 289 289 289 289 288 287 287 286 286 285 285 285 284 284 284 283 283 283
278 283 284 287 285 289 293 292 290 289 284 287 285 287 284 281 271 270 272 277 279 281 277 277 276 275 275 281 287 293 294 291 291 292 293 292 292 293 294 292 291 292 294 293 292 294 294 294 293 292 291 290 290 289 289 289 289 289 289 289 289 289 289 289 289 289 289 289 289 289 289 289 288 288 287 287 287 286 285 285 285 284 284 284 284 283
285 285 285 289 287 289 290 292 291 284 284 283 282 281 280 282 280 281 283 280 279 275 275 274 279 277 284 287 286 286 288 291 291 290 289 291 293 293 293 294 295 294 294 292 292 293 293 293 292 291 290 290 290 289 289 289 289 289 289 289 289 290 289 289 289 289 289 289 289 289 288 288 288 288 287 287 287 286 286 285 285 284 284 284 284 283
285 281 287 289 287 287 287 284 290 289 281 282 285 282 286 284 285 283 282 280 276 272 278 277 279 283 284 288 288 290 288 289 289 291 290 291 292 293 293 295 295 294 291 290 292 294 293 292 292 292 290 290 289 289 289 289 290 290 290 289 289 289 289 289 289 289 289 289 288 288 288 288 288 287 287 287 286 286 285 285 285 284 284 283 283 283
285 287 289 286 287 288 285 285 288 285 287 283 280 283 286 284 282 281 273 273 275 275 278 277 278 281 280 279 281 283 285 286 285 289 292 292 290 290 293 294 294 294 292 292 292 293 293 293 293 291 291 291 291 290 290 290 290 290 290 290 289 289 288 289 289 289 289 289 288 288 288 288 288 288 287 287 286 285 284 284 284 284 283 283 283 283
290 282 288 285 286 287 284 288 287 286 286 284 282 286 285 279 279 280 276 275 276 276 276 280 283 283 283 284 286 288 287 289 289 289 287 290 291 291 292 293 293 292 292 292 293 294 294 294 294 293 292 291 291 291 291 290 290 289 289 290 289 289 289 290 290 289 289 289 289 289 288 288 288 288 287 287 286 284 284 283 283 283 283 282 282 282
289 284 286 288 287 288 284 285 280 284 288 287 287 285 284 282 279 277 282 278 281 278 279 279 283 280 286 281 285 284 285 286 287 286 287 289 291 293 293 294 294 292 292 294 294 295 295 295 294 293 292 291 291 290 290 290 289 289 290 289 289 289 289 288 288 289 288 289 289 289 288 288 288 287 287 286 285 284 284 284 283 282 282 282 281 281
286 288 282 287 286 287 282 284 282 285 284 285 285 283 284 283 283 283 282 280 281 279 279 278 278 283 288 286 287 286 286 287 289 291 290 290 290 291 292 294 294 293 290 292 295 296 296 295 294 293 291 290 289 288 288 288 289 290 289 288 289 289 288 288 289 288 289 289 288 288 287 287 287 286 286 285 284 284 284 283 283 282 282 281 281 281
286 284 284 285 283 284 288 288 287 288 290 287 287 285 287 284 281 280 278 285 282 282 278 279 277 285 292 294 291 292 288 287 286 287 288 288 290 290 291 291 292 293 293 293 294 295 296 294 293 291 289 288 287 287 288 289 288 287 288 289 289 288 288 288 288 288 288 288 288 287 287 287 286 286 285 284 283 283 283 283 282 282 281 281 281 280
290 285 286 284 286 287 290 291 288 289 288 286 288 287 289 288 286 283 278 282 284 283 286 284 281 282 294 296 295 295 292 288 286 286 288 288 288 290 292 291 290 290 292 295 293 294 293 292 292 292 291 290 290 290 287 286 287 288 288 288 288 288 288 288 289 288 288 287 287 287 287 286 285 285 284 284 283 283 283 283 282 282 281 280 280 280
293 287 283 285 288 288 289 289 287 285 286 285 285 285 285 285 287 286 285 285 283 283 281 281 279 283 292 295 295 295 289 287 290 288 290 290 288 287 287 289 290 292 293 291 289 289 290 289 290 289 291 291 290 290 290 289 289 288 288 288 288 288 288 288 288 288 287 287 287 286 286 285 285 284 284 284 284 283 283 283 282 281 281 280 280 279
287 285 287 283 283 284 285 287 290 287 285 283 285 287 288 288 287 287 285 283 282 283 283 281 276 282 291 295 294 292 290 287 288 286 285 287 286 287 287 288 288 288 288 287 288 289 288 289 290 292 292 292 292 291 290 290 289 289 289 289 288 288 289 289 288 287 287 287 286 286 285 285 284 284 283 284 284 283 283 282 281 280 280 280 279 279
290 287 286 280 277 276 276 278 279 284 286 286 284 287 287 286 286 284 281 283 279 283 284 281 280 286 291 293 293 293 293 293 291 286 284 284 286 289 289 289 291 291 291 290 288 286 288 290 291 292 292 292 291 291 291 291 291 290 290 289 289 289 288 288 288 288 287 286 286 285 284 284 284 284 284 284 284 283 283 282 281 280 280 279 278 278
285 288 288 286 284 282 284 286 287 284 280 282 283 286 287 287 287 286 286 283 280 283 282 283 284 285 286 289 290 292 293 292 293 294 290 290 291 290 290 291 292 294 296 296 292 290 289 289 292 293 293 293 292 291 291 291 291 291 290 289 289 289 289 289 288 287 287 286 286 285 284 284 284 284 284 284 284 283 282 281 280 279 279 279 278 277
280 282 286 287 286 287 289 289 290 291 287 287 285 284 285 285 286 284 283 281 286 283 279 285 286 284 286 289 290 291 292 293 294 294 294 294 294 294 293 292 293 293 292 289 291 293 292 293 293 292 291 291 292 292 292 292 292 291 290 290 290 289 289 288 287 287 286 286 285 285 285 285 285 285 284 284 283 282 282 281 280 279 279 278 278 277
281 282 285 285 284 287 288 289 290 289 289 288 288 288 287 287 285 281 282 285 285 282 280 285 286 285 286 289 291 292 293 293 294 294 295 296 295 295 292 288 288 289 289 287 290 292 295 297 298 297 293 291 290 291 292 293 292 291 290 290 290 289 288 288 286 286 286 285 285 285 285 285 285 284 284 283 282 281 281 280 279 279 278 278 277 277
287 284 287 287 285 285 286 287 288 287 287 287 287 287 288 288 287 287 285 285 284 283 286 286 286 286 289 290 291 293 294 294 295 296 296 295 294 294 294 293 291 290 290 291 292 293 293 293 293 293 292 293 294 294 294 293 292 292 291 291 290 288 288 287 286 286 285 285 285 285 285 284 284 283 282 282 281 281 280 279 278 278 277 277 277 276
287 284 290 287 284 284 286 287 287 286 286 284 286 287 287 288 288 288 288 288 287 286 286 286 285 285 290 293 293 294 295 295 295 294 294 295 295 295 294 293 294 293 293 293 293 292 292 293 293 294 295 296 296 296 296 296 294 292 290 289 288 288 287 286 286 285 285 285 285 285 284 283 283 282 281 281 281 280 279 278 278 277 277 276 276 275
286 284 288 285 282 282 286 285 286 286 285 284 284 285 286 286 284 286 285 288 286 284 286 286 284 284 290 293 293 293 293 293 292 293 294 294 295 294 291 289 289 289 290 290 290 290 291 290 290 291 293 295 295 295 295 294 293 290 289 288 287 287 286 285 285 285 285 285 284 284 283 283 282 281 281 280 280 279 278 278 277 276 276 275 274 274
285 283 283 283 279 279 285 286 285 285 283 279 281 284 286 287 287 288 289 289 288 289 285 283 284 290 292 293 291 292 292 292 292 293 294 292 289 287 287 287 287 287 287 287 287 287 288 288 289 290 291 292 294 294 293 292 291 290 291 289 288 284 283 284 284 284 284 284 283 283 282 282 281 280 279 279 279 278 277 276 276 275 274 274 274 273
285 284 282 285 278 279 284 284 284 280 273 275 287 289 288 285 286 285 285 287 289 290 287 290 290 292 293 292 290 290 290 292 293 291 287 286 286 287 286 286 286 286 286 286 287 287 287 288 288 289 289 290 291 291 291 290 289 290 290 288 285 283 284 283 284 284 284 283 282 282 281 281 280 279 279 278 277 276 276 275 275 275 274 274 273 273
285 285 283 285 280 278 283 282 278 273 275 286 290 291 291 290 289 287 288 289 289 290 289 287 283 280 280 281 281 282 284 286 290 285 286 284 285 285 284 284 285 285 285 285 285 286 286 287 287 288 289 290 290 291 290 290 290 289 289 288 285 283 283 283 283 283 283 282 282 281 280 280 279 279 278 277 276 275 275 274 274 274 274 274 273 273
284 283 283 282 283 282 280 278 272 274 282 281 287 288 290 289 288 287 285 288 284 280 281 280 280 279 279 279 280 281 281 283 287 285 284 284 284 284 284 283 284 284 284 285 284 285 285 286 285 286 286 288 289 289 289 289 289 287 288 284 284 282 282 282 282 282 281 281 281 281 281 280 279 278 276 276 275 275 275 274 274 274 273 273 273 272
286 285 284 279 285 276 279 278 278 284 283 284 284 283 282 279 280 282 280 281 278 281 279 278 279 279 279 279 279 280 281 283 285 285 285 283 283 284 284 283 283 283 284 284 284 284 285 285 285 285 285 286 287 287 287 286 286 286 286 283 280 280 280 281 281 282 281 281 281 281 280 280 279 277 276 275 275 274 275 274 274 274 273 272 272 271
287 283 284 279 278 283 276 275 275 275 272 277 278 279 284 282 282 281 281 278 279 280 280 278 278 278 278 279 279 279 280 278 277 279 282 283 284 283 283 283 283 283 283 283 283 284 285 286 286 286 286 286 287 288 285 283 284 284 285 283 280 280 279 278 281 281 281 281 281 280 279 280 279 278 276 275 275 275 275 274 274 273 272 272 271 271
284 286 284 280 278 281 278 274 274 274 275 274 276 280 281 282 281 281 280 276 278 280 281 279 278 279 278 278 278 279 277 273 273 277 281 282 283 283 282 282 283 283 282 282 283 284 285 286 285 285 286 287 287 287 284 283 283 283 283 281 279 279 279 280 280 279 279 280 279 278 278 278 278 278 276 275 275 275 275 274 273 273 272 272 271 271
274 277 281 278 277 279 277 274 272 277 271 276 277 280 281 281 284 283 275 273 275 279 280 280 279 277 279 278 279 278 276 273 275 278 282 283 283 283 283 283 283 283 283 284 285 285 285 285 286 286 286 286 287 287 283 282 283 283 281 280 278 278 279 279 279 278 278 277 276 276 277 278 278 277 276 275 275 275 274 273 272 271 271 271 270 269
271 272 274 272 275 276 276 274 276 276 277 278 277 281 281 281 281 276 270 271 278 280 281 279 279 280 279 278 279 275 279 280 280 282 283 283 283 284 285 285 284 284 284 285 285 287 286 286 286 286 286 286 287 285 282 281 282 284 281 278 278 280 279 278 278 277 276 274 274 275 277 278 278 277 276 276 275 274 273 272 271 270 270 269 268 268
270 273 273 276 273 272 273 271 272 277 277 278 279 280 281 276 265 265 275 281 282 282 281 280 279 280 280 279 279 279 280 282 282 283 282 283 283 283 284 285 285 285 286 286 286 286 286 286 286 286 286 287 287 285 283 281 283 283 281 279 281 283 278 277 276 275 274 274 275 276 276 276 277 276 275 274 273 272 271 271 270 269 269 268 268 267
271 271 268 270 270 272 271 270 270 268 277 279 278 276 279 270 271 278 279 281 283 281 280 280 280 279 280 279 280 280 281 281 282 282 282 283 282 283 283 283 283 283 283 283 284 285 285 284 284 285 286 287 287 287 285 283 284 284 282 280 284 281 277 275 275 275 275 275 275 275 275 275 275 274 273 272 272 272 271 270 269 269 268 268 267 267
274 268 268 271 275 268 269 268 269 276 277 281 277 270 276 276 280 280 281 279 282 281 280 280 280 280 281 280 279 280 280 280 281 281 281 281 282 282 282 282 283 283 283 283 284 284 285 284 284 284 285 286 287 287 286 285 284 285 284 284 285 279 276 276 276 276 275 274 274 274 273 273 273 273 272 272 271 271 270 269 269 269 268 268 267 267
275 269 274 270 276 272 268 272 276 279 280 281 281 280 280 280 280 281 282 281 280 280 281 279 280 280 281 280 280 279 279 279 279 280 279 280 280 281 281 281 281 281 282 282 282 283 284 283 283 284 285 285 286 286 286 285 284 284 284 286 284 282 279 276 275 275 275 274 273 273 272 272 272 272 271 271 271 270 269 269 268 268 268 268 268 268
274 275 274 272 272 277 278 279 280 279 278 278 280 281 280 280 281 283 283 281 281 280 280 279 280 280 280 280 279 278 278 278 278 279 279 279 279 280 280 280 280 281 281 281 281 282 282 283 283 283 283 284 285 285 285 285 284 284 286 286 284 281 279 277 276 275 275 274 273 273 272 271 271 271 271 271 271 271 270 269 268 268 268 267 268 268
273 274 270 270 270 270 265 273 273 274 276 277 277 279 280 281 283 284 283 283 281 280 280 280 280 280 279 279 278 278 277 278 277 278 278 278 278 278 278 278 279 279 279 279 280 281 281 281 281 281 281 281 283 284 285 285 286 286 286 285 286 282 279 276 276 276 275 274 273 272 271 271 271 270 270 270 271 271 270 270 269 269 268 268 268 268
270 275 269 269 271 269 269 274 274 275 276 277 277 276 276 280 281 281 281 280 280 280 280 279 278 277 278 277 277 276 276 277 276 276 276 276 276 276 277 277 277 278 278 278 279 279 279 279 279 279 280 280 282 283 284 284 285 286 286 286 285 282 278 276 276 276 276 274 273 271 271 271 269 269 270 270 270 270 269 269 269 269 268 268 268 268
272 274 266 271 270 272 274 274 275 276 275 275 276 275 276 278 277 276 277 277 277 276 277 277 277 276 276 275 276 275 274 275 275 275 274 274 275 275 275 276 276 276 276 276 277 278 277 277 278 278 279 279 280 281 282 283 285 286 286 286 285 281 278 277 276 275 275 274 272 271 270 270 270 270 270 270 269 270 270 269 269 269 270 270 270 270
269 269 274 272 267 268 269 272 274 268 269 274 274 275 275 276 275 275 274 273 273 273 273 273 273 273 273 273 273 273 272 272 273 273 273 273 273 274 274 274 274 274 274 275 276 275 276 276 276 276 277 277 278 279 280 280 281 283 284 285 284 280 278 277 276 274 274 272 271 270 269 269 270 269 269 269 269 269 269 270 272 271 269 269 272 274
273 273 273 270 269 268 273 275 275 275 274 275 276 276 276 275 274 273 273 272 272 272 272 271 270 271 271 271 272 271 270 271 271 271 271 272 272 273 273 273 272 272 272 273 273 272 273 273 274 274 274 275 276 276 277 277 278 279 280 281 282 280 278 277 276 275 273 271 270 270 269 269 269 268 268 268 267 267 266 266 269 273 273 272 273 274
Wind_Speed
4 7 8 9 14 15 8 11 17 18 13 6 1 4 10 11 11 9 16 9 3 3 11 15 18 19 17 17 18 17 15 14 14 14 14 13 14 15 15 16 16 15 19 19 11 7 9 11 12 12 11 12 11 11 12 14 15 16 17 15 17 14 13 13 12 11 12 12 9 7 11 13 11 10 8 8 8 8 8 9 9 9 8 8 8 8
3 7 8 15 17 12 13 14 12 10 4 7 8 7 14 7 15 16 13 9 3 6 7 9 16 18 18 17 17 11 9 18 17 17 18 18 15 14 16 19 19 19 14 12 12 8 5 8 9 10 10 9 12 12 14 17 18 17 16 18 16 13 14 15 15 15 14 13 15 15 15 12 10 10 11 12 10 10 8 9 9 8 8 9 9 8
5 10 14 19 13 8 5 3 5 8 10 8 9 9 9 11 14 16 11 15 9 4 14 13 17 17 17 15 15 14 13 17 15 16 20 16 14 14 15 17 19 17 18 17 15 10 7 8 9 10 11 12 18 17 19 18 16 15 16 15 14 15 15 15 15 13 14 12 10 10 8 11 8 6 7 6 6 6 8 8 9 8 8 8 8 8
5 7 19 14 9 6 8 5 5 4 5 7 8 6 13 8 3 14 4 7 0 8 3 4 11 12 9 8 13 17 15 16 17 17 18 14 14 16 19 18 16 17 18 19 19 14 8 9 10 10 11 14 12 10 10 12 16 14 14 14 15 15 15 14 14 14 12 10 6 4 5 5 6 5 5 4 5 6 6 9 8 8 9 10 9 9
16 10 10 12 9 10 12 11 5 6 14 8 12 10 11 11 15 12 8 3 5 4 4 11 15 16 11 16 13 16 19 14 17 16 15 15 14 16 16 14 16 21 22 19 16 11 6 8 11 14 14 9 11 13 15 15 16 14 17 17 17 15 16 14 14 14 10 9 7 6 6 5 4 4 5 5 6 9 8 7 10 12 10 10 9 9
13 9 3 6 8 9 9 7 10 9 14 11 7 12 20 18 13 11 12 8 5 8 3 3 10 14 9 17 17 12 9 8 13 12 17 18 17 15 17 20 21 19 18 19 19 15 8 11 10 9 9 12 13 14 16 16 16 14 14 14 14 12 12 13 14 14 12 12 13 11 10 10 9 8 9 14 18 14 15 16 9 7 10 10 9 9
8 6 7 7 8 9 9 9 8 12 15 10 6 17 19 13 11 10 11 3 7 7 3 1 3 20 6 5 8 9 11 13 9 7 15 15 15 15 16 18 19 18 16 14 13 12 8 11 8 10 12 15 14 16 11 11 13 13 14 15 16 14 13 12 13 14 12 12 12 16 17 15 16 16 14 12 7 10 8 6 10 10 8 9 10 9
3 4 8 8 7 7 7 7 12 14 11 10 2 7 7 7 6 8 6 7 9 0 3 1 4 8 24 6 8 13 13 9 10 14 15 15 15 15 15 17 18 18 12 11 11 12 11 10 13 16 17 14 17 11 10 11 11 15 15 15 15 12 12 12 13 15 14 15 14 14 13 13 14 16 15 10 8 6 7 8 9 9 9 9 9 10
8 4 7 7 6 7 10 19 3 13 8 4 1 7 6 7 6 2 3 5 3 4 10 7 3 5 14 4 14 13 7 6 12 16 17 16 14 15 16 18 19 16 15 9 11 13 12 12 13 13 12 14 8 9 13 14 13 12 12 13 13 13 12 12 14 15 15 14 15 15 13 13 13 11 6 6 6 7 8 10 7 8 9 8 8 9
2 2 7 10 10 11 10 2 8 12 9 4 5 6 5 4 4 1 0 1 3 2 13 8 6 6 23 1 3 2 5 9 12 17 20 17 13 14 15 19 17 11 12 9 12 11 9 11 12 11 6 6 11 9 8 8 9 10 10 12 13 13 11 12 14 15 15 15 13 13 15 17 13 9 6 7 9 9 8 11 10 9 9 9 9 8
3 2 4 5 8 5 3 0 2 7 4 4 3 3 4 6 3 3 6 3 4 10 10 12 12 9 15 4 9 9 8 11 13 6 8 10 10 13 13 16 15 13 13 11 9 8 7 6 6 5 10 10 7 7 8 9 10 10 11 13 15 15 12 12 15 15 17 15 14 15 16 16 14 12 9 9 10 10 10 12 12 11 10 9 10 8
2 1 2 4 4 4 3 3 2 1 2 3 1 2 3 5 5 2 3 2 3 14 4 12 13 13 14 2 5 5 4 3 7 9 12 13 14 14 13 13 15 15 15 12 6 7 5 3 4 5 7 9 9 7 9 9 10 11 12 13 15 13 14 13 14 15 16 15 16 15 15 16 15 13 12 14 14 14 15 13 12 10 8 9 9 9
5 10 5 2 3 9 3 2 2 2 2 3 3 2 3 5 6 3 2 1 6 12 3 6 7 3 22 8 4 8 7 6 8 10 12 13 12 12 12 15 13 12 10 8 8 6 5 8 9 10 8 7 11 14 14 14 13 12 13 15 16 17 15 15 14 16 16 15 16 17 16 15 12 13 14 14 13 12 13 12 12 12 12 10 10 12
9 2 3 4 1 4 7 8 1 2 5 6 6 5 5 6 6 6 4 3 6 7 7 4 3 13 5 4 11 17 18 15 11 12 12 12 12 12 13 13 9 11 11 11 6 5 7 9 9 10 10 12 11 12 13 13 13 13 13 15 17 18 16 14 14 16 16 19 18 16 15 14 12 14 14 12 13 12 11 11 13 14 14 14 16 14
6 11 4 6 4 4 10 11 15 9 8 12 2 11 11 9 6 4 5 11 10 10 3 2 5 9 3 4 8 15 9 5 6 10 11 11 10 9 10 10 11 11 14 8 4 7 9 9 10 10 11 11 11 12 12 12 12 12 13 15 17 14 16 17 19 16 18 17 17 15 15 13 12 14 13 13 11 11 12 12 12 12 11 12 13 13
9 11 6 4 0 6 11 7 2 3 2 3 2 4 1 10 5 10 7 7 7 4 4 2 8 3 4 1 3 4 6 9 7 5 5 10 12 13 13 15 15 14 12 1 3 5 7 7 7 7 7 8 8 10 10 11 12 13 16 16 18 19 16 15 14 15 18 18 14 14 15 16 15 11 10 10 10 11 11 11 12 12 12 11 9 9
1 5 1 2 4 2 4 2 2 5 6 3 6 7 11 2 5 6 5 2 1 2 16 2 7 9 7 9 8 10 5 9 7 9 9 12 15 13 13 15 16 12 7 3 4 6 5 4 6 8 8 8 8 9 13 16 16 18 16 15 16 15 13 15 17 18 16 14 13 16 17 14 14 15 16 16 15 12 10 10 11 11 11 9 10 10
8 7 0 5 4 1 1 1 0 1 4 7 2 7 1 1 3 3 5 2 4 10 10 2 11 8 4 14 2 3 1 5 5 11 14 9 7 8 13 14 13 13 10 5 6 7 8 7 8 7 7 10 13 15 14 15 15 13 12 14 16 14 16 16 17 17 15 16 17 16 16 16 17 16 15 13 12 11 10 10 10 9 10 13 10 10
1 5 4 2 1 4 2 0 5 1 1 5 5 1 5 4 5 2 3 5 7 10 6 8 17 14 9 14 7 10 8 9 10 9 5 10 10 12 14 16 14 9 8 7 7 8 9 10 10 11 13 10 10 11 12 12 11 9 11 12 12 16 19 19 15 13 12 12 12 12 15 16 15 13 13 11 10 9 12 13 12 12 11 8 10 10
1 7 3 0 4 0 1 3 6 3 1 0 1 1 1 1 4 5 7 3 4 13 8 13 12 17 5 4 5 7 9 8 9 7 8 11 14 14 13 12 13 9 9 9 8 9 10 11 11 12 12 13 14 12 10 9 9 12 14 12 13 13 9 8 12 15 16 16 15 14 12 12 13 13 12 12 12 12 13 13 12 11 10 13 9 11
6 4 16 3 2 1 3 5 9 10 8 4 2 4 1 3 3 2 2 3 5 8 9 10 12 10 13 6 6 10 9 9 11 14 12 9 9 9 9 12 12 10 6 7 10 11 12 11 10 9 8 6 4 5 6 9 13 14 9 11 13 15 15 15 16 14 15 14 15 14 15 15 14 14 12 11 12 13 12 11 12 12 11 8 12 11
1 1 13 3 3 9 15 6 10 10 12 10 12 11 13 9 4 8 11 2 5 8 10 11 14 5 17 8 8 16 8 9 6 7 9 8 8 10 8 8 10 9 10 10 11 12 13 9 8 5 3 3 5 6 8 10 8 8 13 16 14 11 11 14 14 15 17 14 14 15 15 14 11 11 11 12 11 12 12 12 12 12 10 13 12 12
4 3 5 10 10 14 14 9 4 8 6 4 6 9 11 10 7 9 15 14 7 9 8 11 10 12 11 24 19 15 12 7 8 6 7 6 7 7 10 8 7 7 9 10 9 9 8 6 5 6 7 8 10 9 7 5 9 12 13 12 11 14 17 16 17 16 13 13 13 16 15 12 11 12 13 14 13 14 14 13 12 11 14 13 12 12
4 5 7 12 8 8 8 5 4 3 4 4 6 7 4 11 16 15 13 7 10 6 8 8 13 9 13 20 24 18 7 7 9 7 9 9 5 4 6 9 8 8 10 9 8 6 4 4 5 5 7 9 9 9 12 12 12 12 11 13 13 15 18 15 14 12 11 12 14 14 12 13 13 13 14 15 15 16 14 12 11 11 13 12 11 13
7 3 12 13 7 7 5 8 13 2 2 5 8 10 12 10 7 8 3 3 7 9 12 11 17 8 11 17 16 15 12 8 11 6 6 6 6 5 6 6 6 6 7 8 8 8 5 5 5 7 8 9 9 8 8 9 11 12 14 12 13 16 17 14 11 11 12 13 14 13 14 14 14 15 16 17 14 16 14 13 12 11 13 12 12 12
11 6 7 11 13 15 12 11 12 15 15 9 1 8 7 11 15 7 10 9 14 9 15 15 15 12 16 16 19 21 23 23 14 8 5 5 6 8 7 8 10 10 11 10 8 5 6 6 6 7 10 10 8 9 9 11 12 13 12 14 14 14 11 12 11 12 12 12 13 13 15 15 14 17 18 18 15 15 14 13 13 13 11 13 14 12
3 6 13 13 14 16 15 13 2 3 3 4 5 13 15 13 14 13 10 12 16 15 17 16 15 17 15 14 19 24 23 22 22 17 7 7 8 10 10 11 10 12 15 14 8 6 6 6 11 13 9 8 7 7 9 11 12 12 12 13 12 13 13 12 11 12 13 13 14 14 15 15 17 17 17 16 15 13 12 13 13 13 14 13 13 14
1 6 11 18 22 20 20 20 20 17 17 13 9 9 9 12 12 15 15 20 15 14 19 11 16 16 17 18 22 24 25 25 23 19 16 13 14 14 12 10 11 11 10 6 7 10 11 11 10 9 9 8 9 11 11 12 13 13 12 14 14 13 12 10 11 13 13 13 14 15 16 17 17 16 15 13 12 12 13 13 12 13 12 12 14 14
4 11 11 13 19 19 22 24 24 22 18 18 19 19 21 20 15 14 17 18 16 16 20 13 14 18 17 16 17 21 24 26 21 19 19 19 18 15 10 7 8 9 8 6 8 11 13 17 18 19 12 8 8 10 13 12 11 10 10 12 11 10 13 12 11 12 13 13 15 16 16 15 13 12 12 12 12 13 13 13 13 12 12 12 12 11
4 12 12 16 20 17 19 21 21 23 21 20 20 23 26 25 25 23 22 18 18 20 20 20 20 22 16 14 17 22 21 18 19 20 21 22 22 20 18 14 9 8 8 10 13 14 13 13 13 12 11 10 13 14 14 11 11 12 13 14 12 11 11 10 13 13 14 15 17 15 13 13 11 11 11 12 13 14 13 13 12 13 13 13 13 11
7 9 12 15 15 18 18 19 18 20 20 25 25 25 25 25 24 25 25 23 21 23 23 25 25 25 19 22 23 21 20 20 22 24 25 26 25 25 18 13 14 12 10 11 12 13 12 13 13 13 14 15 17 18 17 16 14 11 11 11 8 11 11 11 13 12 13 16 15 12 10 10 11 11 12 13 12 10 12 13 12 12 12 12 12 12
4 6 5 9 11 12 10 16 19 20 23 26 26 25 21 22 24 23 21 21 21 24 24 24 20 18 20 23 25 25 24 21 22 24 24 23 23 18 15 15 16 16 16 16 16 16 16 14 12 13 15 17 18 17 15 15 13 9 11 10 10 12 8 10 10 12 13 14 10 10 12 12 11 12 12 11 12 12 12 11 12 12 12 12 12 11
2 3 3 5 13 14 14 17 19 21 20 18 19 21 27 28 26 23 22 21 20 20 21 19 22 20 24 19 18 16 17 18 18 19 19 12 12 12 12 12 12 13 13 13 13 13 14 14 13 14 15 15 15 14 14 12 10 11 11 10 10 3 7 10 12 13 13 12 11 12 12 11 12 12 12 12 12 11 11 12 12 12 12 13 11 10
7 9 9 4 8 9 8 12 11 12 16 16 13 23 24 26 25 27 24 26 29 22 19 19 21 17 16 15 14 15 15 14 13 7 14 10 10 11 10 10 10 11 11 12 12 12 12 13 13 13 12 12 14 15 16 12 10 13 11 7 2 8 9 11 12 12 12 9 10 11 11 11 11 12 12 11 11 11 12 13 14 12 10 10 10 12
13 11 11 6 7 7 8 10 14 19 17 5 5 12 21 27 27 28 29 26 25 20 15 12 16 18 15 13 13 12 14 16 10 12 13 15 13 13 12 10 11 12 13 11 14 14 13 13 14 15 16 15 15 14 12 13 11 10 12 9 6 5 7 8 10 10 9 10 10 9 10 11 12 12 11 11 12 12 12 13 11 12 12 12 14 14
12 13 11 10 10 10 10 11 17 13 2 3 6 6 9 12 14 17 19 15 10 15 11 10 10 12 14 15 16 14 16 18 3 9 12 15 13 12 13 13 12 11 12 12 12 13 12 13 13 13 14 12 13 13 12 12 11 9 12 6 5 4 5 6 7 8 6 9 11 12 12 13 13 12 11 12 12 13 13 13 14 15 12 11 9 8
17 12 9 12 8 16 11 14 18 11 17 9 10 4 11 7 10 9 15 1 11 13 13 10 10 13 14 14 15 16 20 14 3 4 15 16 16 12 10 12 10 10 10 12 10 11 11 10 11 13 11 11 11 12 12 12 11 11 10 7 5 2 3 4 7 8 9 10 10 10 11 12 13 13 13 13 14 15 14 14 13 12 10 12 11 12
9 14 9 15 11 13 19 16 15 12 17 6 8 11 7 11 11 10 8 4 12 10 11 10 10 11 12 11 14 15 15 13 12 11 15 17 16 13 13 12 10 9 8 10 11 11 11 10 12 14 13 13 13 13 11 10 11 11 10 7 4 2 3 3 7 5 5 7 3 3 4 7 11 13 14 14 16 16 14 12 9 12 12 14 13 13
4 9 10 14 13 12 16 16 14 13 5 7 11 12 10 14 17 14 4 5 7 6 8 10 8 10 10 12 15 14 14 12 11 10 12 15 15 13 13 12 13 12 9 9 11 13 14 14 12 12 13 14 16 16 13 11 11 10 10 8 5 3 4 6 5 3 3 2 1 3 4 5 5 7 10 13 13 12 13 14 13 10 9 9 10 10
5 3 5 11 13 11 14 15 14 4 2 7 7 11 13 16 12 4 10 5 13 9 4 8 7 6 7 6 6 6 7 11 12 13 12 14 14 12 12 14 14 15 13 11 10 10 9 10 13 15 15 15 16 15 13 11 11 10 9 7 4 5 6 5 4 3 2 2 4 5 5 5 7 7 7 7 5 5 6 5 7 9 10 8 8 9
3 4 2 8 8 13 15 14 10 5 5 4 11 8 12 11 4 4 6 10 14 4 2 6 4 5 4 5 4 4 3 5 10 12 13 12 13 12 11 11 11 10 12 14 15 14 12 12 10 11 11 11 12 12 11 10 10 10 7 5 6 8 6 4 2 2 3 3 4 4 6 5 7 8 7 7 8 7 7 6 8 8 8 9 7 8
1 3 3 5 8 7 5 8 8 6 3 4 11 9 11 9 7 8 7 6 5 7 4 3 6 6 5 5 6 4 7 6 8 10 9 10 11 12 11 12 13 12 10 9 11 12 13 13 13 14 13 10 11 10 10 9 10 10 8 5 8 10 4 2 1 0 1 3 4 5 6 6 5 6 7 7 9 9 9 7 8 8 9 8 8 10
4 6 4 6 4 7 6 10 10 12 2 14 11 9 5 5 8 7 8 8 3 4 8 5 4 5 2 5 3 5 6 7 7 8 9 10 11 12 13 13 14 15 16 16 16 12 10 12 13 14 15 13 12 10 9 9 10 10 8 6 10 6 2 1 1 1 1 2 3 4 5 5 7 7 6 7 8 10 10 8 9 10 10 10 10 10
1 8 6 7 5 9 8 9 5 4 11 11 8 4 5 1 6 5 4 7 5 4 4 5 3 2 2 5 5 5 5 7 7 6 10 10 11 12 11 12 12 13 14 12 11 13 14 14 14 14 12 12 12 10 9 9 12 11 11 12 9 4 1 1 2 2 3 3 3 3 3 4 6 7 7 8 8 8 9 9 9 9 9 10 11 10
5 8 3 8 3 4 4 10 11 12 9 8 2 5 7 6 3 5 4 6 6 5 5 2 6 3 2 4 6 5 7 4 8 8 9 12 12 11 12 12 12 13 14 14 14 13 11 14 17 17 17 12 10 11 10 8 10 14 15 13 6 5 4 3 2 3 3 4 4 5 5 5 6 7 8 9 11 12 10 11 11 11 9 10 10 10
4 8 5 3 5 8 10 10 11 9 7 7 5 6 10 10 5 5 7 6 7 6 3 4 4 5 3 3 5 7 6 8 8 9 10 10 11 10 9 10 12 11 12 13 13 14 13 14 14 15 17 17 14 12 10 9 8 13 15 13 10 6 3 4 5 6 7 5 6 7 6 8 7 8 9 11 10 12 12 14 14 13 12 11 11 11
5 6 3 5 2 6 8 3 6 6 12 13 12 12 10 7 7 7 6 6 5 4 4 4 5 5 5 4 6 8 10 9 9 9 9 8 10 11 11 11 11 11 12 13 13 13 14 12 13 16 17 19 17 12 12 13 11 11 12 13 12 8 5 5 7 7 7 8 8 8 9 10 8 8 8 10 10 9 10 10 11 12 13 14 13 13
9 4 3 6 8 7 12 12 12 8 12 13 13 11 6 7 7 6 5 4 3 4 4 4 4 5 4 6 6 7 10 10 10 9 9 9 9 10 11 12 12 12 12 11 13 13 13 14 15 16 17 17 16 14 13 14 13 12 12 12 11 9 6 7 8 9 9 10 8 8 10 10 11 12 10 11 12 12 11 11 12 13 15 16 17 16
5 3 4 6 7 7 9 9 15 16 15 13 11 6 6 7 5 2 3 4 4 3 3 4 3 5 4 7 7 8 9 11 10 9 10 11 11 10 10 11 12 13 13 13 11 11 13 14 15 15 16 17 15 14 14 14 14 13 13 12 11 7 8 10 10 10 9 7 7 8 8 9 9 11 11 11 11 11 11 12 14 15 13 11 10 13
0 8 11 7 8 10 11 13 9 8 10 10 7 7 6 5 4 5 4 4 4 3 2 4 6 5 6 7 6 6 7 10 11 9 9 11 12 13 12 12 13 13 14 12 11 12 13 13 14 16 17 16 15 14 14 15 14 14 14 13 11 7 9 11 10 9 10 8 8 8 8 9 9 9 9 8 9 9 8 6 10 8 8 8 11 16
10 13 9 8 9 12 13 14 12 12 10 10 13 7 7 4 4 5 5 4 2 1 2 4 8 9 9 8 4 6 6 9 11 10 9 10 12 12 13 13 13 13 14 13 13 14 12 13 14 15 17 17 15 14 14 14 15 15 15 14 14 10 10 10 10 9 9 8 9 11 11 10 9 8 8 8 7 7 7 5 6 11 12 8 12 15
Wind_Direction
134 158 162 188 222 225 223 197 216 227 233 259 298 249 253 256 269 265 268 264 180 271 240 241 246 254 255 249 250 252 264 270 266 264 256 249 252 256 261 257 252 249 247 252 255 224 209 201 202 203 195 197 195 193 184 183 186 184 180 174 184 180 173 172 172 175 172 177 177 183 192 197 190 189 183 187 193 191 193 186 185 183 180 176 173 173
100 172 211 214 219 217 219 213 226 252 268 246 256 267 266 253 273 253 268 273 213 201 262 231 253 254 252 255 258 253 261 262 257 260 258 256 248 250 252 258 256 251 259 265 266 244 217 212 206 198 193 183 183 198 185 187 189 184 179 183 180 172 179 182 180 179 183 185 185 183 192 189 182 181 185 195 195 194 188 187 187 183 182 179 178 174
179 196 221 224 224 232 256 220 225 222 237 240 236 249 279 263 259 278 263 267 257 167 265 262 261 258 255 253 260 258 238 252 252 247 254 253 254 253 251 252 256 261 260 262 257 249 211 213 209 197 196 197 198 191 189 191 181 182 183 185 176 180 179 185 182 178 188 186 186 186 182 180 180 199 201 195 187 176 186 190 187 184 181 179 181 178
251 247 234 227 225 238 254 227 222 247 238 223 240 257 246 256 286 284 198 262 269 187 262 260 271 266 274 265 256 260 252 249 252 253 257 253 250 248 249 249 255 256 256 255 255 251 214 207 208 201 201 203 197 186 191 183 185 184 186 182 180 182 184 182 185 186 184 176 161 139 132 151 147 174 168 165 158 179 174 193 188 190 185 185 182 178
222 223 215 214 203 204 232 235 229 250 261 203 217 232 258 251 239 234 268 335 281 284 265 286 278 272 241 256 254 254 251 252 260 259 259 259 249 248 257 265 254 254 256 258 260 254 208 207 211 204 206 187 190 193 190 186 185 186 186 184 181 180 184 184 182 179 163 141 125 112 92 98 90 75 141 161 201 197 192 179 194 197 182 182 183 182
255 246 130 167 199 206 218 241 222 216 260 248 207 211 235 241 259 261 277 320 313 306 274 234 313 275 191 214 233 240 266 237 249 248 254 253 251 252 255 253 253 251 252 256 258 255 220 214 213 212 200 193 200 197 196 189 187 181 182 180 180 180 182 183 180 173 163 167 162 154 154 167 185 189 181 197 203 191 193 200 181 175 186 184 182 182
230 219 170 187 186 203 204 218 224 187 241 270 249 208 233 241 241 257 274 333 276 254 309 94 210 292 136 207 213 241 242 246 262 244 252 252 251 250 247 253 256 252 252 253 256 258 227 223 208 208 202 201 198 206 184 181 184 183 179 181 180 180 181 179 176 172 168 171 177 181 185 185 187 196 211 211 196 193 195 164 180 188 183 186 181 185
188 215 192 205 188 188 197 234 239 181 224 259 221 178 212 232 229 236 224 204 256 296 268 174 147 262 291 229 213 214 228 233 253 260 252 248 249 247 246 249 252 256 245 244 240 241 229 215 201 206 206 197 204 185 168 180 180 182 180 178 181 180 180 179 174 176 179 179 183 187 193 194 200 204 209 190 193 173 173 184 185 180 188 187 189 182
169 202 191 192 190 183 205 219 196 157 183 228 194 145 183 198 219 182 182 215 236 13 292 178 106 284 259 270 195 189 220 246 241 241 249 246 243 249 253 252 249 253 258 233 236 234 219 211 212 211 202 205 181 168 180 182 182 179 176 178 178 181 178 177 178 180 186 187 186 190 191 200 213 209 193 161 167 176 176 186 182 185 187 187 191 188
311 177 206 179 164 211 225 233 151 171 206 272 117 78 77 68 67 90 99 309 323 357 267 172 170 220 279 87 218 13 200 231 229 230 238 243 244 247 253 260 262 259 261 246 234 238 220 214 214 209 186 167 192 182 175 171 168 172 168 175 177 184 180 179 182 185 188 190 186 192 199 205 203 191 171 162 177 180 178 191 188 187 184 188 188 188
227 326 151 129 202 215 169 193 167 198 194 117 76 64 6 33 23 24 71 89 6 261 260 169 197 178 272 302 173 144 199 209 224 247 277 278 270 261 256 259 269 263 255 249 239 240 234 225 210 164 183 185 167 169 165 167 169 167 171 176 183 187 180 180 185 185 191 192 193 201 202 204 201 192 177 173 186 181 182 195 191 189 191 185 190 181
260 64 186 253 74 87 105 104 32 72 148 135 152 137 30 322 14 35 341 49 193 270 197 191 186 180 232 277 278 227 264 263 213 220 228 241 250 253 252 253 254 255 251 251 220 234 207 175 171 171 186 175 174 158 169 168 169 174 177 178 183 185 187 185 186 189 194 194 202 206 203 205 205 190 191 194 194 190 192 193 191 187 179 191 186 186
273 222 207 101 224 151 154 138 311 20 30 106 99 102 204 261 26 310 36 296 204 238 239 212 172 321 242 234 244 288 290 282 225 214 229 228 240 253 260 256 252 255 262 254 229 214 194 196 186 193 189 162 174 184 178 177 177 177 179 181 183 193 189 189 185 192 195 197 205 204 204 208 200 201 201 202 201 193 194 191 188 182 192 182 186 195
277 294 148 231 5 219 128 189 236 329 217 128 165 170 142 245 241 252 258 254 299 283 250 183 159 241 290 268 214 254 254 238 220 222 226 230 228 241 254 260 278 279 275 257 207 200 209 202 201 202 187 187 185 183 181 179 179 182 184 186 190 195 186 187 188 195 196 204 206 204 206 205 198 205 203 204 205 197 197 191 193 192 191 189 196 189
317 303 246 139 232 191 178 198 201 197 162 201 95 158 194 183 158 205 214 246 245 251 314 256 126 236 107 251 211 208 241 277 257 238 234 236 252 268 274 284 284 275 270 253 162 205 213 208 202 198 196 194 190 184 181 182 186 180 187 189 197 190 192 191 194 192 200 206 205 205 207 204 201 206 202 207 203 197 197 197 195 197 194 197 198 194
218 238 266 216 186 153 182 234 174 92 46 218 162 73 26 234 157 237 228 254 274 326 323 208 217 206 222 265 311 267 273 257 258 306 309 278 265 255 263 265 263 257 265 13 249 247 233 211 205 206 202 196 186 184 186 189 187 190 197 194 195 196 193 195 194 199 203 206 202 204 205 207 205 205 205 208 205 203 196 196 196 197 196 199 191 191
227 272 268 275 52 168 193 21 209 145 224 246 105 194 215 153 166 262 312 300 72 14 257 194 285 280 300 280 243 254 252 281 285 278 277 257 244 247 250 255 257 268 295 330 294 265 280 251 222 206 196 189 186 185 192 195 193 198 195 194 197 196 189 195 202 205 205 205 200 207 208 204 202 204 204 207 203 198 191 192 198 195 196 186 188 188
244 269 208 143 244 4 208 287 236 3 144 105 192 246 25 110 113 145 217 318 246 236 266 277 254 281 351 290 328 24 39 289 282 244 248 272 289 278 261 259 263 265 268 232 231 239 234 220 221 215 209 203 196 194 197 199 200 201 197 199 199 192 194 202 202 205 203 202 205 208 207 207 207 207 210 207 202 193 183 193 194 190 185 196 185 177
32 298 280 21 121 274 344 328 325 333 351 151 187 227 137 252 260 265 100 234 241 246 265 244 280 269 225 258 284 289 277 266 265 272 299 267 258 256 260 261 263 268 290 279 257 244 235 222 215 208 207 206 206 205 204 201 192 194 202 205 202 201 203 202 200 202 204 203 209 210 209 208 208 208 208 205 196 183 191 194 194 193 193 174 180 177
41 275 272 293 168 298 8 122 225 197 276 73 44 268 184 118 211 167 202 197 200 252 252 260 262 271 230 205 236 232 235 231 252 280 258 243 236 237 245 257 262 265 256 263 264 255 245 235 219 207 202 199 202 203 203 196 192 198 203 199 207 214 210 195 200 201 205 206 206 208 207 208 207 206 203 199 191 192 197 196 189 189 182 189 172 183
260 176 270 210 302 41 247 194 205 177 193 220 207 251 245 219 221 130 308 157 206 250 236 265 256 270 275 186 223 235 215 231 232 241 244 244 257 250 248 253 261 263 265 261 257 260 256 242 228 221 214 214 206 188 182 190 200 205 192 202 208 208 205 205 209 203 211 203 208 204 204 206 202 203 199 195 195 198 198 192 188 189 188 158 185 180
321 171 253 216 250 215 248 209 190 196 193 197 189 210 211 212 254 256 254 187 229 224 239 240 248 242 273 256 217 261 236 237 231 222 241 244 240 244 254 257 250 262 257 251 253 247 249 251 256 251 197 185 191 215 203 203 199 196 200 209 207 205 212 211 212 207 211 203 205 203 207 204 198 194 189 193 194 200 197 194 191 186 171 185 184 178
178 177 234 245 226 240 245 259 221 210 217 222 181 227 213 219 214 229 251 230 234 234 255 249 267 239 253 272 264 256 258 240 233 197 240 257 252 262 268 268 278 265 263 276 285 287 281 269 238 223 228 210 203 203 207 201 203 210 213 208 207 207 215 210 213 211 208 203 200 204 203 197 192 189 192 193 196 200 197 196 191 180 184 185 182 181
150 234 246 250 253 284 294 275 286 225 224 291 252 235 220 225 215 230 239 246 242 226 236 245 243 251 248 262 272 275 258 234 258 252 254 262 280 283 267 264 256 268 286 300 295 286 285 286 290 262 218 218 216 209 206 206 209 210 211 210 206 209 218 212 214 209 207 208 208 202 192 194 193 190 194 198 200 202 199 192 188 183 186 183 176 180
223 197 221 256 256 258 267 313 278 253 124 201 227 227 226 240 248 242 264 45 267 221 242 245 255 245 245 259 274 292 281 257 254 259 219 243 262 261 267 276 288 291 299 292 284 277 266 264 253 237 246 237 223 218 215 216 218 215 217 211 210 218 218 212 208 200 205 206 207 199 196 196 190 193 196 201 200 202 193 189 184 183 185 177 180 181
216 207 196 225 233 242 238 224 225 237 232 226 273 256 230 218 231 249 250 230 246 233 233 240 253 249 261 271 279 277 279 278 260 227 245 217 241 270 271 277 280 280 272 269 271 297 286 259 242 241 235 232 232 223 218 219 221 223 222 218 214 219 220 216 202 204 202 204 202 201 200 198 194 199 200 201 201 199 192 186 183 182 184 179 178 175
238 208 220 225 230 239 243 256 276 93 52 202 228 228 242 234 235 236 248 246 242 243 238 238 248 261 257 266 267 269 271 273 278 276 244 262 264 249 240 245 254 261 268 274 289 267 254 245 239 239 237 229 232 228 226 221 225 223 221 224 217 216 215 212 200 202 202 202 203 203 203 198 200 200 201 200 198 189 184 186 185 180 183 181 177 174
94 238 227 232 234 239 250 258 261 260 263 257 252 247 249 247 232 229 225 242 244 263 258 244 251 254 250 249 255 265 271 274 273 277 283 274 265 261 256 254 256 265 277 302 292 278 262 249 245 242 243 238 232 227 228 227 225 221 216 222 220 214 213 203 197 202 202 200 203 205 204 204 204 200 200 195 189 185 187 183 181 185 181 173 178 181
187 238 229 235 243 241 243 247 254 258 253 255 256 256 254 249 247 238 241 244 248 246 258 256 250 250 249 245 255 260 262 265 277 282 279 274 275 273 269 259 259 266 278 279 267 267 275 282 286 289 279 247 239 240 239 239 237 231 230 229 222 208 210 203 196 202 200 201 206 209 206 203 201 198 191 187 184 183 184 183 182 179 176 179 181 181
215 242 244 236 250 241 243 246 249 252 257 257 255 254 253 253 252 247 249 246 240 247 254 259 255 256 258 257 246 251 257 269 275 279 278 278 277 276 273 276 272 265 266 270 265 262 264 265 266 259 257 261 262 263 263 254 247 239 231 230 221 209 213 183 202 200 200 203 209 209 201 198 194 191 186 182 185 187 181 178 177 176 177 181 181 175
204 243 219 245 253 249 248 250 247 250 249 253 252 250 250 255 258 254 255 254 256 256 254 255 257 260 256 257 258 262 265 264 265 269 273 276 281 282 292 303 304 306 298 281 277 274 265 261 260 264 269 270 269 267 270 268 258 248 240 238 220 215 210 191 204 202 202 210 211 203 192 188 192 182 185 188 184 178 176 177 175 178 179 178 176 173
223 276 249 267 261 252 230 241 240 243 243 243 246 248 253 250 252 250 248 243 241 248 251 253 255 256 255 251 253 254 259 263 265 268 271 275 285 318 4 21 16 6 1 359 355 349 337 320 299 284 273 268 268 269 267 267 260 244 237 230 219 219 194 194 201 202 208 213 201 191 188 190 183 182 186 179 183 179 178 172 174 177 177 174 173 172
237 306 271 262 256 254 245 245 247 245 249 248 242 239 239 241 239 245 247 251 249 248 249 249 250 246 250 248 259 260 260 261 265 266 277 321 19 45 34 22 14 3 357 353 352 349 348 341 325 308 299 294 291 291 290 291 292 272 258 239 235 171 176 197 200 204 209 206 193 194 189 184 182 183 180 184 178 173 170 174 174 175 174 179 173 159
231 245 258 260 265 277 270 264 264 256 235 232 221 224 225 234 236 239 243 243 244 237 242 238 258 278 299 315 313 314 310 304 301 9 57 55 9 18 24 16 5 355 347 346 343 342 341 342 337 330 314 302 299 297 294 291 278 276 277 278 196 177 200 195 205 206 208 197 195 191 187 182 179 183 183 173 170 168 173 175 182 177 171 161 161 172
257 262 258 246 269 281 273 274 262 234 247 243 238 229 229 234 235 237 241 243 250 261 287 336 6 15 6 12 2 341 324 318 358 66 49 36 24 5 1 2 356 351 339 338 337 337 336 335 334 336 334 336 328 319 317 310 299 293 290 284 257 217 199 206 204 206 201 193 193 183 185 183 182 182 174 170 167 169 176 179 173 171 173 172 174 175
250 254 265 254 261 265 247 240 251 256 188 344 6 319 288 280 276 278 278 276 7 42 56 42 18 10 13 2 353 340 328 310 278 80 53 25 26 355 353 347 341 338 333 328 328 325 329 330 328 325 320 318 330 330 329 314 309 307 290 306 252 237 215 211 211 213 197 199 195 194 189 181 181 177 170 167 169 174 178 179 179 176 172 169 172 172
235 252 244 268 231 263 260 258 256 292 287 256 263 5 13 352 326 300 275 150 42 43 44 33 18 13 12 360 351 347 339 326 211 85 16 13 358 350 340 331 324 322 318 318 320 316 315 316 322 322 317 319 330 334 332 322 319 312 301 295 284 235 224 205 222 219 209 212 204 199 190 185 178 174 171 172 173 180 181 179 180 176 167 169 173 172
214 225 223 254 240 237 264 268 273 265 261 314 358 319 335 324 299 276 278 180 50 36 41 48 26 7 5 352 359 351 343 13 3 341 347 345 341 339 330 323 323 317 317 315 320 322 326 327 328 329 331 327 333 339 333 328 328 325 320 326 343 322 280 247 243 237 227 230 230 233 221 196 181 177 176 176 183 184 184 178 174 176 173 174 171 178
291 243 245 244 274 269 263 260 259 263 265 78 328 327 322 325 323 300 218 201 57 37 23 35 33 19 358 352 348 358 4 357 325 322 328 330 330 333 328 322 324 324 322 327 329 331 330 331 330 323 327 337 341 339 336 334 338 339 332 339 344 335 285 255 266 297 277 280 185 182 181 192 201 195 185 187 188 180 177 179 179 168 165 172 169 171
330 280 261 250 257 239 259 264 273 291 279 346 341 328 340 313 316 34 271 159 358 7 11 16 20 353 350 341 320 2 7 332 322 317 322 320 318 323 327 327 326 329 331 328 335 330 323 323 333 336 339 339 334 333 336 336 339 343 345 338 347 302 277 295 299 247 200 169 156 161 170 179 184 184 186 188 171 173 176 156 152 165 169 165 163 161
354 322 300 279 277 278 275 274 275 265 120 23 338 331 334 312 290 268 287 340 325 335 19 352 320 302 282 291 325 321 270 229 268 286 303 311 317 321 325 326 324 323 326 332 329 331 331 331 330 325 322 323 324 329 331 336 337 334 341 338 324 293 282 274 251 197 184 152 150 163 172 172 183 182 177 168 164 153 148 159 161 155 163 160 155 150
266 234 253 256 260 268 295 289 277 307 175 29 343 29 336 22 20 276 309 321 327 311 335 306 289 271 293 245 289 245 281 282 281 286 300 314 320 314 318 324 323 320 314 314 313 320 327 325 325 324 325 324 325 324 327 334 331 320 324 339 312 303 309 307 277 173 139 166 170 172 172 173 168 166 161 151 149 155 160 154 151 160 160 159 161 164
255 290 248 279 309 292 262 271 266 261 181 23 342 5 54 58 266 276 285 281 268 304 293 291 261 289 283 307 282 274 281 292 288 296 306 315 314 314 316 321 323 323 324 326 327 323 323 322 324 326 324 324 325 324 322 327 320 314 311 304 284 306 341 246 157 152 164 171 177 175 168 164 161 155 151 157 160 160 161 155 157 162 162 161 164 168
318 289 266 259 231 264 258 245 239 358 322 341 27 302 323 224 240 264 260 280 257 243 267 261 284 232 293 300 301 291 281 292 289 297 303 300 303 306 309 309 313 317 315 311 313 322 325 324 322 320 319 322 322 320 319 321 312 308 307 294 289 301 221 182 201 158 162 167 169 158 160 162 159 151 152 155 157 160 157 164 166 165 172 168 168 171
186 196 262 275 287 285 248 279 290 300 307 308 242 208 270 279 236 229 207 216 255 245 204 224 280 249 229 269 287 290 291 279 286 295 297 297 299 303 308 313 314 316 317 318 320 324 326 323 321 320 318 321 322 316 310 306 303 304 302 295 292 264 235 211 190 203 205 192 170 172 172 162 170 166 166 168 165 167 170 170 170 172 179 174 180 181
298 283 253 268 241 248 257 250 275 290 297 284 273 285 304 289 263 183 199 227 230 231 236 229 251 272 260 247 278 288 267 284 292 287 289 293 297 300 305 310 313 309 311 314 316 320 322 321 317 316 315 315 318 317 310 299 291 297 296 298 296 274 240 196 195 210 211 192 185 183 169 175 181 181 179 177 184 186 182 176 178 179 178 182 186 185
226 223 249 224 291 297 278 255 270 283 289 289 292 296 287 251 230 204 220 227 234 229 231 243 254 269 276 279 268 277 293 289 289 294 295 302 303 307 308 308 304 307 310 313 313 319 319 319 316 314 314 311 314 318 313 310 304 290 290 293 293 286 248 230 223 223 208 201 193 182 176 183 185 187 190 190 190 191 189 189 187 183 182 186 186 189
278 206 229 250 247 224 259 271 286 268 261 275 282 284 273 252 226 218 207 209 201 223 214 236 273 287 284 286 280 294 296 296 299 301 303 301 301 303 302 300 303 305 304 304 312 315 313 313 313 310 309 307 309 315 313 308 306 302 296 289 288 279 257 245 234 229 224 211 196 189 187 192 187 186 193 198 195 193 192 193 193 191 191 189 190 187
224 17 247 227 251 258 276 283 270 275 284 275 266 252 222 214 221 249 234 223 243 249 259 278 279 274 298 283 302 303 295 296 300 304 304 302 298 295 294 295 298 300 302 306 304 310 308 306 306 304 303 302 305 308 307 306 307 309 306 299 292 272 249 250 244 239 238 219 199 203 195 197 193 198 196 199 204 209 205 198 198 205 210 210 201 195
121 244 253 268 271 259 254 260 264 284 278 279 270 255 223 225 187 212 242 246 254 262 299 284 282 278 271 279 281 277 277 286 292 294 293 292 292 294 297 298 300 300 297 297 302 301 301 301 303 305 304 300 303 307 308 309 309 309 310 308 300 272 250 250 248 239 238 217 210 208 194 201 201 200 203 203 206 210 218 228 225 228 219 209 204 208
214 235 236 232 235 253 249 247 247 251 262 257 271 265 194 182 183 230 238 227 247 265 296 309 300 305 297 284 268 267 269 272 282 289 281 279 283 288 291 296 297 297 298 303 302 299 299 304 304 301 299 299 303 304 303 302 302 301 300 300 300 285 259 255 252 246 241 220 217 209 200 201 198 194 196 196 199 201 203 206 221 228 224 217 205 203